GFSGBSN_prec_precacc6_225.txt.gz
Total_Precipitation_Accumulation
0.00 0.00 0.00 0.00 0.00 0.00 0.00 0.00 0.00 0.00 0.00 0.00 0.00 0.00 0.00 0.00 0.00 0.00 0.00 0.00 0.00 0.00 0.00 0.00 0.00 0.00 0.00 0.00 0.00 0.00 0.00 0.00 0.00 0.00 0.00 0.00 0.00 0.00 0.00 0.00 0.00 0.00 0.00 0.00 0.00 0.00 0.00
0.00 0.00 0.00 0.00 0.00 0.00 0.00 0.00 0.00 0.00 0.00 0.00 0.00 0.00 0.00 0.00 0.00 0.00 0.00 0.00 0.00 0.00 0.00 0.00 0.00 0.00 0.00 0.00 0.00 0.00 0.00 0.00 0.00 0.00 0.00 0.00 0.00 0.00 0.00 0.00 0.00 0.00 0.00 0.00 0.00 0.00 0.00
0.04 0.01 0.00 0.00 0.00 0.00 0.00 0.00 0.00 0.00 0.00 0.00 0.00 0.00 0.00 0.00 0.00 0.00 0.00 0.00 0.00 0.00 0.00 0.00 0.00 0.00 0.00 0.00 0.00 0.00 0.00 0.00 0.00 0.00 0.00 0.00 0.00 0.00 0.00 0.00 0.00 0.00 0.00 0.00 0.00 0.00 0.00
0.04 0.01 0.00 0.00 0.00 0.00 0.00 0.00 0.00 0.00 0.00 0.00 0.00 0.00 0.00 0.00 0.00 0.00 0.00 0.00 0.00 0.00 0.00 0.00 0.00 0.00 0.00 0.00 0.00 0.00 0.00 0.00 0.00 0.00 0.00 0.00 0.00 0.00 0.00 0.00 0.00 0.00 0.00 0.00 0.00 0.00 0.00
0.09 0.06 0.02 0.00 0.00 0.00 0.00 0.00 0.00 0.00 0.00 0.00 0.00 0.00 0.00 0.00 0.00 0.00 0.00 0.00 0.00 0.00 0.00 0.00 0.00 0.00 0.00 0.00 0.00 0.00 0.00 0.00 0.00 0.00 0.00 0.00 0.00 0.00 0.00 0.00 0.00 0.00 0.00 0.00 0.00 0.00 0.00
0.09 0.07 0.07 0.03 0.00 0.00 0.00 0.00 0.00 0.00 0.00 0.00 0.00 0.00 0.00 0.00 0.00 0.00 0.00 0.00 0.00 0.00 0.00 0.00 0.00 0.00 0.00 0.00 0.00 0.00 0.00 0.00 0.00 0.00 0.00 0.00 0.00 0.00 0.00 0.00 0.00 0.00 0.00 0.00 0.00 0.00 0.00
0.20 0.16 0.11 0.06 0.02 0.00 0.00 0.00 0.00 0.00 0.00 0.00 0.00 0.00 0.00 0.00 0.00 0.00 0.00 0.00 0.00 0.00 0.00 0.00 0.00 0.00 0.00 0.00 0.00 0.00 0.00 0.00 0.00 0.00 0.00 0.00 0.00 0.00 0.00 0.00 0.00 0.00 0.00 0.00 0.00 0.00 0.00
0.11 0.24 0.24 0.14 0.06 0.01 0.00 0.00 0.00 0.00 0.00 0.00 0.00 0.00 0.00 0.00 0.00 0.00 0.00 0.00 0.00 0.00 0.00 0.00 0.00 0.00 0.00 0.00 0.00 0.00 0.00 0.00 0.00 0.00 0.00 0.00 0.00 0.00 0.00 0.00 0.00 0.00 0.00 0.00 0.00 0.00 0.00
0.07 0.14 0.21 0.27 0.19 0.08 0.01 0.00 0.00 0.00 0.00 0.00 0.00 0.00 0.00 0.00 0.00 0.00 0.00 0.00 0.00 0.00 0.00 0.00 0.00 0.00 0.00 0.00 0.00 0.00 0.00 0.00 0.00 0.00 0.00 0.00 0.00 0.00 0.00 0.00 0.00 0.00 0.00 0.00 0.00 0.00 0.00
0.03 0.09 0.15 0.19 0.27 0.26 0.17 0.05 0.00 0.00 0.00 0.00 0.00 0.00 0.00 0.00 0.00 0.00 0.00 0.00 0.00 0.00 0.00 0.00 0.00 0.00 0.00 0.00 0.00 0.00 0.00 0.00 0.00 0.00 0.00 0.00 0.00 0.00 0.00 0.00 0.00 0.00 0.00 0.00 0.00 0.00 0.00
0.01 0.06 0.09 0.13 0.19 0.25 0.27 0.23 0.09 0.01 0.00 0.00 0.00 0.00 0.00 0.00 0.00 0.00 0.00 0.00 0.00 0.00 0.00 0.00 0.00 0.00 0.00 0.00 0.00 0.00 0.00 0.00 0.00 0.00 0.00 0.00 0.00 0.00 0.00 0.00 0.00 0.00 0.00 0.00 0.00 0.00 0.00
0.00 0.04 0.07 0.11 0.13 0.16 0.19 0.23 0.20 0.07 0.00 0.00 0.00 0.00 0.00 0.00 0.00 0.00 0.00 0.00 0.00 0.00 0.00 0.00 0.00 0.00 0.00 0.00 0.00 0.00 0.00 0.00 0.00 0.00 0.00 0.00 0.00 0.00 0.00 0.00 0.00 0.00 0.00 0.00 0.00 0.00 0.00
0.00 0.02 0.08 0.13 0.17 0.14 0.13 0.12 0.16 0.11 0.02 0.00 0.00 0.00 0.00 0.00 0.00 0.00 0.00 0.00 0.00 0.00 0.00 0.00 0.00 0.00 0.00 0.00 0.00 0.00 0.00 0.00 0.00 0.00 0.00 0.00 0.00 0.00 0.00 0.00 0.00 0.00 0.00 0.00 0.00 0.00 0.00
0.00 0.00 0.03 0.15 0.20 0.26 0.15 0.14 0.11 0.15 0.08 0.03 0.00 0.00 0.00 0.00 0.00 0.00 0.00 0.00 0.00 0.00 0.00 0.00 0.00 0.00 0.00 0.00 0.00 0.00 0.00 0.00 0.00 0.00 0.00 0.00 0.00 0.00 0.00 0.00 0.00 0.00 0.00 0.00 0.00 0.00 0.00
0.00 0.00 0.01 0.09 0.19 0.26 0.39 0.22 0.15 0.12 0.10 0.05 0.01 0.01 0.02 0.00 0.00 0.00 0.01 0.01 0.00 0.00 0.00 0.00 0.00 0.00 0.00 0.00 0.00 0.00 0.00 0.00 0.00 0.00 0.00 0.00 0.00 0.00 0.00 0.00 0.00 0.00 0.00 0.00 0.00 0.00 0.00
0.00 0.00 0.01 0.06 0.14 0.22 0.32 0.47 0.30 0.20 0.15 0.09 0.07 0.03 0.01 0.00 0.00 0.02 0.03 0.01 0.00 0.00 0.00 0.00 0.00 0.00 0.00 0.00 0.00 0.00 0.00 0.00 0.00 0.00 0.00 0.00 0.00 0.00 0.00 0.00 0.00 0.00 0.00 0.00 0.00 0.00 0.00
0.00 0.00 0.01 0.09 0.16 0.17 0.27 0.36 0.52 0.39 0.25 0.12 0.09 0.08 0.03 0.02 0.03 0.05 0.02 0.00 0.00 0.00 0.00 0.00 0.00 0.00 0.00 0.00 0.00 0.00 0.00 0.00 0.00 0.00 0.00 0.00 0.00 0.00 0.00 0.00 0.00 0.00 0.00 0.00 0.01 0.00 0.01
0.00 0.00 0.00 0.03 0.13 0.19 0.18 0.33 0.45 0.59 0.45 0.32 0.14 0.08 0.03 0.05 0.06 0.03 0.01 0.00 0.00 0.00 0.00 0.00 0.00 0.00 0.00 0.00 0.00 0.00 0.00 0.00 0.00 0.00 0.00 0.00 0.00 0.00 0.00 0.00 0.00 0.00 0.00 0.00 0.03 0.01 0.03
0.00 0.00 0.00 0.01 0.06 0.18 0.26 0.28 0.44 0.51 0.67 0.46 0.17 0.06 0.10 0.05 0.02 0.02 0.01 0.01 0.00 0.00 0.00 0.00 0.00 0.00 0.00 0.00 0.01 0.00 0.00 0.00 0.00 0.00 0.00 0.00 0.01 0.02 0.01 0.00 0.00 0.00 0.00 0.00 0.01 0.06 0.06
0.01 0.00 0.00 0.01 0.05 0.17 0.27 0.42 0.44 0.46 0.67 0.47 0.22 0.09 0.16 0.11 0.02 0.01 0.01 0.01 0.01 0.00 0.00 0.00 0.00 0.00 0.00 0.00 0.00 0.02 0.01 0.00 0.00 0.01 0.02 0.03 0.08 0.02 0.00 0.00 0.02 0.04 0.01 0.00 0.03 0.10 0.03
0.01 0.00 0.01 0.03 0.06 0.14 0.25 0.44 0.64 0.47 0.57 0.67 0.30 0.11 0.04 0.07 0.05 0.02 0.01 0.00 0.01 0.00 0.00 0.00 0.00 0.00 0.00 0.05 0.03 0.01 0.00 0.02 0.03 0.07 0.06 0.11 0.12 0.02 0.00 0.00 0.00 0.01 0.02 0.02 0.03 0.01 0.06
0.01 0.01 0.02 0.04 0.10 0.13 0.23 0.37 0.71 0.78 0.52 0.93 0.29 0.05 0.01 0.01 0.00 0.01 0.02 0.01 0.01 0.00 0.00 0.01 0.00 0.00 0.01 0.03 0.02 0.04 0.05 0.05 0.04 0.04 0.05 0.10 0.12 0.04 0.01 0.00 0.00 0.00 0.00 0.00 0.00 0.00 0.01
0.02 0.03 0.03 0.05 0.09 0.17 0.18 0.24 0.48 1.09 0.95 0.85 0.41 0.03 0.01 0.01 0.00 0.00 0.01 0.00 0.00 0.00 0.01 0.00 0.00 0.01 0.02 0.01 0.04 0.08 0.09 0.08 0.06 0.04 0.06 0.11 0.08 0.05 0.03 0.00 0.00 0.00 0.00 0.00 0.00 0.00 0.00
0.04 0.06 0.04 0.07 0.10 0.17 0.17 0.19 0.31 0.72 1.44 0.66 0.25 0.07 0.03 0.00 0.00 0.00 0.00 0.00 0.01 0.01 0.01 0.00 0.00 0.02 0.04 0.03 0.10 0.15 0.11 0.08 0.06 0.05 0.06 0.12 0.09 0.10 0.05 0.01 0.02 0.00 0.00 0.00 0.00 0.00 0.00
0.05 0.07 0.06 0.08 0.16 0.18 0.22 0.17 0.22 0.42 0.95 0.98 0.27 0.07 0.03 0.00 0.00 0.00 0.01 0.02 0.02 0.02 0.03 0.03 0.03 0.04 0.07 0.11 0.20 0.22 0.12 0.06 0.04 0.04 0.07 0.05 0.09 0.11 0.05 0.01 0.00 0.00 0.00 0.00 0.00 0.00 0.00
0.05 0.06 0.05 0.08 0.23 0.26 0.22 0.21 0.12 0.26 0.46 1.28 0.60 0.09 0.02 0.01 0.01 0.00 0.01 0.03 0.05 0.08 0.09 0.10 0.09 0.10 0.14 0.22 0.29 0.26 0.11 0.02 0.00 0.00 0.02 0.04 0.05 0.10 0.07 0.02 0.00 0.00 0.00 0.00 0.00 0.00 0.00
0.04 0.05 0.05 0.08 0.23 0.33 0.29 0.21 0.14 0.13 0.34 1.08 1.05 0.28 0.05 0.14 0.08 0.01 0.02 0.05 0.07 0.12 0.17 0.17 0.16 0.19 0.20 0.25 0.25 0.15 0.07 0.01 0.00 0.00 0.00 0.01 0.04 0.07 0.04 0.04 0.00 0.00 0.00 0.00 0.00 0.00 0.00
0.02 0.03 0.05 0.08 0.17 0.31 0.31 0.21 0.19 0.14 0.46 1.11 0.96 0.56 0.18 0.26 0.26 0.09 0.06 0.08 0.11 0.18 0.24 0.26 0.28 0.34 0.26 0.21 0.18 0.08 0.02 0.01 0.00 0.00 0.00 0.00 0.01 0.01 0.01 0.03 0.00 0.00 0.00 0.00 0.00 0.00 0.00
0.01 0.02 0.03 0.07 0.15 0.24 0.26 0.29 0.21 0.25 0.66 1.03 0.63 0.61 0.32 0.41 0.54 0.32 0.18 0.18 0.18 0.22 0.28 0.35 0.30 0.12 0.08 0.14 0.10 0.03 0.01 0.00 0.00 0.00 0.00 0.00 0.00 0.00 0.00 0.00 0.00 0.00 0.00 0.00 0.00 0.00 0.00

GFSGBSN_prec_precacc6_228.txt.gz
Total_Precipitation_Accumulation
0.00 0.00 0.00 0.00 0.00 0.00 0.00 0.00 0.00 0.00 0.00 0.00 0.00 0.00 0.00 0.00 0.00 0.00 0.00 0.00 0.00 0.00 0.00 0.00 0.00 0.00 0.00 0.00 0.00 0.00 0.00 0.00 0.00 0.00 0.00 0.00 0.00 0.00 0.00 0.00 0.00 0.00 0.00 0.00 0.00 0.00 0.00
0.00 0.00 0.00 0.00 0.00 0.00 0.00 0.00 0.00 0.00 0.00 0.00 0.00 0.00 0.00 0.00 0.00 0.00 0.00 0.00 0.00 0.00 0.00 0.00 0.00 0.00 0.00 0.00 0.00 0.00 0.00 0.00 0.00 0.00 0.00 0.00 0.00 0.00 0.00 0.00 0.00 0.00 0.00 0.00 0.00 0.00 0.00
0.05 0.02 0.00 0.00 0.00 0.00 0.00 0.00 0.00 0.00 0.00 0.00 0.00 0.00 0.00 0.00 0.00 0.00 0.00 0.00 0.00 0.00 0.00 0.00 0.00 0.00 0.00 0.00 0.00 0.00 0.00 0.00 0.00 0.00 0.00 0.00 0.00 0.00 0.00 0.00 0.00 0.00 0.00 0.00 0.00 0.00 0.00
0.09 0.03 0.01 0.00 0.00 0.00 0.00 0.00 0.00 0.00 0.00 0.00 0.00 0.00 0.00 0.00 0.00 0.00 0.00 0.00 0.00 0.00 0.00 0.00 0.00 0.00 0.00 0.00 0.00 0.00 0.00 0.00 0.00 0.00 0.00 0.00 0.00 0.00 0.00 0.00 0.00 0.00 0.00 0.00 0.00 0.00 0.00
0.12 0.10 0.05 0.02 0.00 0.00 0.00 0.00 0.00 0.00 0.00 0.00 0.00 0.00 0.00 0.00 0.00 0.00 0.00 0.00 0.00 0.00 0.00 0.00 0.00 0.00 0.00 0.00 0.00 0.00 0.00 0.00 0.00 0.00 0.00 0.00 0.00 0.00 0.00 0.00 0.00 0.00 0.00 0.00 0.00 0.00 0.00
0.03 0.05 0.08 0.05 0.02 0.01 0.00 0.00 0.00 0.00 0.00 0.00 0.00 0.00 0.00 0.00 0.00 0.00 0.00 0.00 0.00 0.00 0.00 0.00 0.00 0.00 0.00 0.00 0.00 0.00 0.00 0.00 0.00 0.00 0.00 0.00 0.00 0.00 0.00 0.00 0.00 0.00 0.00 0.00 0.00 0.00 0.00
0.00 0.01 0.03 0.05 0.04 0.02 0.01 0.00 0.00 0.00 0.00 0.00 0.00 0.00 0.00 0.00 0.00 0.00 0.00 0.00 0.00 0.00 0.00 0.00 0.00 0.00 0.00 0.00 0.00 0.00 0.00 0.00 0.00 0.00 0.00 0.00 0.00 0.00 0.00 0.00 0.00 0.00 0.00 0.00 0.00 0.00 0.00
0.00 0.01 0.02 0.02 0.04 0.01 0.01 0.01 0.00 0.00 0.00 0.00 0.00 0.00 0.00 0.00 0.00 0.00 0.00 0.00 0.00 0.00 0.00 0.00 0.00 0.00 0.00 0.00 0.00 0.00 0.00 0.00 0.00 0.00 0.00 0.00 0.00 0.00 0.00 0.00 0.00 0.00 0.00 0.00 0.00 0.00 0.00
0.00 0.00 0.01 0.02 0.07 0.06 0.02 0.01 0.01 0.00 0.00 0.00 0.00 0.00 0.00 0.00 0.00 0.00 0.00 0.00 0.00 0.00 0.00 0.00 0.00 0.00 0.00 0.00 0.00 0.00 0.00 0.00 0.00 0.00 0.00 0.00 0.00 0.00 0.00 0.00 0.00 0.00 0.00 0.00 0.00 0.00 0.00
0.00 0.00 0.00 0.00 0.06 0.19 0.17 0.07 0.02 0.00 0.00 0.00 0.00 0.00 0.00 0.00 0.00 0.00 0.00 0.00 0.00 0.00 0.00 0.00 0.00 0.00 0.00 0.00 0.00 0.00 0.00 0.00 0.00 0.00 0.00 0.00 0.00 0.00 0.00 0.00 0.00 0.00 0.00 0.00 0.00 0.00 0.00
0.00 0.00 0.00 0.00 0.02 0.13 0.25 0.23 0.11 0.02 0.00 0.00 0.00 0.00 0.00 0.00 0.00 0.00 0.00 0.00 0.00 0.00 0.00 0.00 0.00 0.00 0.00 0.00 0.00 0.00 0.00 0.00 0.00 0.00 0.00 0.00 0.00 0.00 0.00 0.00 0.00 0.00 0.00 0.00 0.00 0.00 0.00
0.00 0.00 0.00 0.00 0.00 0.03 0.14 0.22 0.21 0.10 0.02 0.01 0.00 0.00 0.00 0.00 0.00 0.00 0.00 0.00 0.00 0.00 0.00 0.00 0.00 0.00 0.00 0.00 0.00 0.00 0.00 0.00 0.00 0.00 0.00 0.00 0.00 0.00 0.00 0.00 0.00 0.00 0.00 0.00 0.00 0.00 0.00
0.00 0.00 0.00 0.00 0.00 0.00 0.02 0.09 0.16 0.14 0.08 0.07 0.01 0.00 0.00 0.00 0.00 0.00 0.00 0.00 0.01 0.00 0.00 0.00 0.00 0.00 0.00 0.00 0.00 0.00 0.00 0.00 0.00 0.00 0.00 0.00 0.00 0.00 0.00 0.00 0.00 0.00 0.00 0.00 0.00 0.00 0.00
0.00 0.00 0.00 0.00 0.00 0.00 0.01 0.06 0.09 0.17 0.16 0.16 0.08 0.00 0.00 0.00 0.00 0.00 0.01 0.04 0.01 0.00 0.00 0.00 0.00 0.00 0.00 0.00 0.00 0.00 0.00 0.00 0.00 0.00 0.00 0.00 0.00 0.00 0.00 0.00 0.00 0.00 0.00 0.00 0.00 0.00 0.00
0.00 0.00 0.00 0.00 0.00 0.00 0.01 0.03 0.09 0.11 0.13 0.18 0.18 0.08 0.03 0.01 0.02 0.03 0.06 0.04 0.00 0.00 0.00 0.00 0.00 0.00 0.00 0.00 0.00 0.00 0.00 0.00 0.00 0.00 0.00 0.00 0.00 0.00 0.00 0.00 0.00 0.00 0.00 0.00 0.00 0.00 0.00
0.00 0.00 0.00 0.00 0.00 0.00 0.02 0.02 0.13 0.17 0.16 0.22 0.21 0.10 0.04 0.01 0.05 0.12 0.13 0.02 0.00 0.00 0.00 0.00 0.00 0.00 0.00 0.00 0.00 0.00 0.00 0.00 0.00 0.00 0.00 0.00 0.00 0.00 0.00 0.00 0.00 0.00 0.00 0.00 0.00 0.00 0.00
0.00 0.00 0.00 0.00 0.00 0.00 0.04 0.04 0.10 0.29 0.24 0.30 0.33 0.16 0.05 0.06 0.15 0.24 0.16 0.01 0.00 0.00 0.00 0.00 0.00 0.00 0.00 0.00 0.00 0.00 0.00 0.00 0.00 0.00 0.00 0.00 0.00 0.00 0.00 0.00 0.00 0.00 0.00 0.00 0.00 0.00 0.01
0.00 0.00 0.00 0.00 0.00 0.00 0.01 0.09 0.14 0.42 0.39 0.49 0.46 0.20 0.11 0.12 0.21 0.20 0.09 0.00 0.00 0.00 0.00 0.00 0.00 0.00 0.00 0.00 0.00 0.00 0.00 0.00 0.00 0.00 0.00 0.00 0.00 0.00 0.00 0.00 0.00 0.00 0.00 0.00 0.01 0.00 0.01
0.00 0.00 0.00 0.00 0.00 0.00 0.00 0.04 0.18 0.36 0.61 0.58 0.48 0.19 0.21 0.12 0.19 0.13 0.02 0.00 0.00 0.00 0.00 0.00 0.00 0.00 0.00 0.00 0.00 0.00 0.00 0.00 0.00 0.00 0.00 0.00 0.01 0.02 0.02 0.01 0.00 0.00 0.00 0.00 0.01 0.04 0.03
0.02 0.01 0.00 0.00 0.00 0.00 0.01 0.07 0.16 0.31 0.59 0.62 0.51 0.31 0.39 0.22 0.06 0.02 0.01 0.01 0.00 0.00 0.00 0.00 0.00 0.00 0.00 0.00 0.00 0.00 0.00 0.00 0.00 0.00 0.00 0.02 0.06 0.02 0.02 0.01 0.04 0.08 0.02 0.01 0.03 0.10 0.03
0.01 0.01 0.00 0.00 0.00 0.00 0.00 0.08 0.16 0.26 0.49 0.92 0.79 0.41 0.19 0.18 0.03 0.03 0.02 0.01 0.01 0.00 0.00 0.00 0.00 0.00 0.00 0.00 0.00 0.00 0.00 0.01 0.00 0.00 0.01 0.05 0.08 0.01 0.00 0.00 0.00 0.01 0.01 0.01 0.01 0.02 0.05
0.01 0.01 0.00 0.00 0.00 0.00 0.00 0.05 0.24 0.25 0.45 1.36 0.83 0.42 0.12 0.04 0.01 0.03 0.03 0.01 0.00 0.00 0.00 0.00 0.00 0.00 0.00 0.00 0.00 0.00 0.01 0.02 0.02 0.00 0.01 0.05 0.08 0.04 0.01 0.00 0.00 0.00 0.00 0.00 0.00 0.00 0.00
0.02 0.02 0.01 0.01 0.00 0.00 0.00 0.02 0.13 0.29 0.65 1.15 0.93 0.38 0.10 0.04 0.01 0.01 0.01 0.01 0.00 0.00 0.00 0.00 0.00 0.00 0.01 0.00 0.01 0.01 0.01 0.01 0.01 0.01 0.02 0.06 0.07 0.07 0.05 0.01 0.00 0.01 0.00 0.00 0.00 0.00 0.00
0.02 0.03 0.03 0.02 0.02 0.01 0.00 0.02 0.08 0.21 0.70 0.83 0.50 0.36 0.41 0.18 0.03 0.00 0.00 0.01 0.01 0.00 0.00 0.00 0.00 0.01 0.01 0.00 0.02 0.04 0.03 0.02 0.02 0.02 0.02 0.06 0.07 0.16 0.11 0.06 0.06 0.00 0.00 0.00 0.00 0.00 0.00
0.04 0.03 0.04 0.03 0.02 0.02 0.01 0.02 0.08 0.17 0.44 0.85 0.47 0.27 0.34 0.29 0.09 0.01 0.00 0.01 0.02 0.01 0.02 0.02 0.01 0.00 0.00 0.02 0.08 0.13 0.09 0.05 0.02 0.02 0.03 0.02 0.08 0.21 0.17 0.07 0.01 0.00 0.00 0.00 0.00 0.00 0.00
0.06 0.05 0.04 0.03 0.03 0.03 0.02 0.05 0.06 0.15 0.25 0.79 0.74 0.40 0.26 0.24 0.10 0.01 0.00 0.01 0.02 0.02 0.02 0.02 0.01 0.01 0.04 0.08 0.18 0.22 0.13 0.04 0.04 0.01 0.02 0.03 0.07 0.19 0.19 0.10 0.01 0.00 0.00 0.00 0.00 0.00 0.00
0.07 0.08 0.06 0.04 0.04 0.05 0.04 0.08 0.07 0.08 0.19 0.58 0.87 0.59 0.40 0.38 0.17 0.02 0.01 0.01 0.01 0.01 0.01 0.02 0.02 0.06 0.09 0.18 0.23 0.19 0.11 0.03 0.04 0.01 0.01 0.01 0.06 0.14 0.13 0.16 0.02 0.00 0.00 0.00 0.00 0.00 0.00
0.06 0.08 0.08 0.06 0.06 0.09 0.07 0.06 0.11 0.07 0.21 0.54 0.71 0.80 0.57 0.50 0.32 0.06 0.01 0.01 0.01 0.03 0.05 0.08 0.11 0.20 0.21 0.23 0.26 0.17 0.10 0.05 0.00 0.00 0.00 0.00 0.02 0.04 0.05 0.12 0.03 0.00 0.00 0.00 0.00 0.00 0.00
0.06 0.07 0.07 0.07 0.09 0.13 0.10 0.10 0.09 0.13 0.24 0.70 0.55 0.63 0.78 0.62 0.50 0.21 0.06 0.04 0.06 0.11 0.14 0.21 0.22 0.14 0.13 0.24 0.21 0.13 0.09 0.04 0.01 0.02 0.00 0.00 0.00 0.01 0.00 0.00 0.00 0.00 0.00 0.00 0.00 0.00 0.00

GFSGBSN_prec_precacc6_231.txt.gz
Total_Precipitation_Accumulation
0.01 0.00 0.00 0.00 0.00 0.00 0.00 0.00 0.00 0.00 0.00 0.00 0.00 0.00 0.00 0.00 0.00 0.00 0.00 0.00 0.00 0.00 0.00 0.00 0.00 0.00 0.00 0.00 0.00 0.00 0.00 0.00 0.00 0.00 0.00 0.00 0.00 0.00 0.00 0.00 0.00 0.00 0.00 0.00 0.00 0.00 0.00
0.02 0.00 0.00 0.00 0.00 0.00 0.00 0.00 0.00 0.00 0.00 0.00 0.00 0.00 0.00 0.00 0.00 0.00 0.00 0.00 0.00 0.00 0.00 0.00 0.00 0.00 0.00 0.00 0.00 0.00 0.00 0.00 0.00 0.00 0.00 0.00 0.00 0.00 0.00 0.00 0.00 0.00 0.00 0.00 0.00 0.00 0.00
0.04 0.04 0.01 0.00 0.00 0.00 0.00 0.00 0.00 0.00 0.00 0.00 0.00 0.00 0.00 0.00 0.00 0.00 0.00 0.00 0.00 0.00 0.00 0.00 0.00 0.00 0.00 0.00 0.00 0.00 0.00 0.00 0.00 0.00 0.00 0.00 0.00 0.00 0.00 0.00 0.00 0.00 0.00 0.00 0.00 0.00 0.00
0.13 0.06 0.03 0.02 0.00 0.00 0.00 0.00 0.00 0.00 0.00 0.00 0.00 0.00 0.00 0.00 0.00 0.00 0.00 0.00 0.00 0.00 0.00 0.00 0.00 0.00 0.00 0.00 0.00 0.00 0.00 0.00 0.00 0.00 0.00 0.00 0.00 0.00 0.00 0.00 0.00 0.00 0.00 0.00 0.00 0.00 0.00
0.12 0.17 0.11 0.06 0.04 0.01 0.00 0.00 0.00 0.00 0.00 0.00 0.00 0.00 0.00 0.00 0.00 0.00 0.00 0.00 0.00 0.00 0.00 0.00 0.00 0.00 0.00 0.00 0.00 0.00 0.00 0.00 0.00 0.00 0.00 0.00 0.00 0.00 0.00 0.00 0.00 0.00 0.00 0.00 0.00 0.00 0.00
0.01 0.04 0.06 0.08 0.07 0.06 0.03 0.01 0.00 0.00 0.00 0.00 0.00 0.00 0.00 0.00 0.00 0.00 0.00 0.00 0.00 0.00 0.00 0.00 0.00 0.00 0.00 0.00 0.00 0.00 0.00 0.00 0.00 0.00 0.00 0.00 0.00 0.00 0.00 0.00 0.00 0.00 0.00 0.00 0.00 0.00 0.00
0.00 0.00 0.00 0.01 0.02 0.02 0.02 0.03 0.01 0.00 0.00 0.00 0.00 0.00 0.00 0.00 0.00 0.00 0.00 0.00 0.00 0.00 0.00 0.00 0.00 0.00 0.00 0.00 0.00 0.00 0.00 0.00 0.00 0.00 0.00 0.00 0.00 0.00 0.00 0.00 0.00 0.00 0.00 0.00 0.00 0.00 0.00
0.00 0.00 0.00 0.00 0.00 0.00 0.00 0.01 0.01 0.01 0.00 0.00 0.00 0.00 0.00 0.00 0.00 0.00 0.00 0.00 0.00 0.00 0.00 0.00 0.00 0.00 0.00 0.00 0.00 0.00 0.00 0.00 0.00 0.00 0.00 0.00 0.00 0.00 0.00 0.00 0.00 0.00 0.00 0.00 0.00 0.00 0.00
0.00 0.00 0.00 0.00 0.00 0.00 0.01 0.01 0.01 0.01 0.02 0.01 0.00 0.00 0.00 0.00 0.00 0.00 0.00 0.00 0.00 0.00 0.00 0.00 0.00 0.00 0.00 0.00 0.00 0.00 0.00 0.00 0.00 0.00 0.00 0.00 0.00 0.00 0.00 0.00 0.00 0.00 0.00 0.00 0.00 0.00 0.00
0.00 0.00 0.00 0.00 0.00 0.00 0.00 0.02 0.02 0.00 0.00 0.01 0.01 0.01 0.00 0.00 0.00 0.00 0.00 0.00 0.00 0.00 0.00 0.00 0.00 0.00 0.00 0.00 0.00 0.00 0.00 0.00 0.00 0.00 0.00 0.00 0.00 0.00 0.00 0.00 0.00 0.00 0.00 0.00 0.00 0.00 0.00
0.00 0.00 0.00 0.00 0.00 0.00 0.00 0.01 0.02 0.01 0.01 0.01 0.00 0.00 0.00 0.00 0.00 0.00 0.00 0.00 0.00 0.00 0.00 0.00 0.00 0.00 0.00 0.00 0.00 0.00 0.00 0.00 0.00 0.00 0.00 0.00 0.00 0.00 0.00 0.00 0.00 0.00 0.00 0.00 0.00 0.00 0.00
0.00 0.00 0.00 0.00 0.00 0.00 0.00 0.00 0.01 0.02 0.02 0.03 0.04 0.00 0.00 0.00 0.00 0.00 0.00 0.00 0.00 0.00 0.00 0.00 0.00 0.00 0.00 0.00 0.00 0.00 0.00 0.00 0.00 0.00 0.00 0.00 0.00 0.00 0.00 0.00 0.00 0.00 0.00 0.00 0.00 0.00 0.00
0.00 0.00 0.00 0.00 0.00 0.00 0.00 0.00 0.00 0.03 0.06 0.08 0.08 0.03 0.00 0.00 0.00 0.00 0.00 0.02 0.02 0.00 0.00 0.00 0.00 0.00 0.00 0.00 0.00 0.00 0.00 0.00 0.00 0.00 0.00 0.00 0.00 0.00 0.00 0.00 0.00 0.00 0.00 0.00 0.00 0.00 0.00
0.00 0.00 0.00 0.00 0.00 0.00 0.00 0.00 0.00 0.02 0.07 0.14 0.16 0.10 0.00 0.00 0.00 0.01 0.01 0.08 0.03 0.00 0.00 0.00 0.00 0.00 0.00 0.00 0.00 0.00 0.00 0.00 0.00 0.00 0.00 0.00 0.00 0.00 0.00 0.00 0.00 0.00 0.00 0.00 0.01 0.00 0.00
0.00 0.00 0.00 0.00 0.00 0.00 0.00 0.00 0.00 0.00 0.03 0.18 0.32 0.17 0.06 0.00 0.02 0.07 0.08 0.05 0.00 0.00 0.00 0.00 0.00 0.00 0.00 0.00 0.00 0.00 0.00 0.00 0.00 0.00 0.00 0.00 0.00 0.00 0.00 0.00 0.00 0.00 0.00 0.00 0.00 0.00 0.00
0.00 0.00 0.00 0.00 0.00 0.00 0.00 0.00 0.00 0.00 0.02 0.15 0.32 0.21 0.05 0.01 0.07 0.21 0.19 0.03 0.00 0.00 0.00 0.00 0.00 0.00 0.00 0.00 0.00 0.00 0.00 0.00 0.00 0.00 0.00 0.00 0.00 0.00 0.00 0.00 0.00 0.00 0.00 0.00 0.00 0.02 0.00
0.00 0.00 0.00 0.00 0.00 0.00 0.00 0.00 0.00 0.00 0.02 0.21 0.33 0.26 0.05 0.06 0.19 0.37 0.40 0.05 0.00 0.00 0.00 0.00 0.00 0.00 0.00 0.00 0.00 0.00 0.00 0.00 0.00 0.00 0.00 0.00 0.00 0.00 0.00 0.00 0.00 0.00 0.00 0.00 0.01 0.02 0.03
0.00 0.00 0.00 0.00 0.00 0.00 0.00 0.00 0.00 0.00 0.02 0.23 0.48 0.22 0.12 0.13 0.24 0.32 0.16 0.00 0.00 0.00 0.00 0.00 0.00 0.00 0.00 0.00 0.00 0.03 0.00 0.02 0.01 0.00 0.00 0.00 0.00 0.00 0.00 0.00 0.00 0.00 0.00 0.00 0.06 0.06 0.02
0.01 0.00 0.00 0.00 0.00 0.00 0.00 0.00 0.00 0.00 0.02 0.15 0.42 0.28 0.30 0.13 0.21 0.15 0.01 0.00 0.00 0.00 0.00 0.00 0.00 0.00 0.00 0.00 0.01 0.01 0.03 0.03 0.02 0.01 0.00 0.00 0.00 0.01 0.01 0.01 0.00 0.00 0.00 0.00 0.02 0.08 0.10
0.02 0.01 0.01 0.00 0.00 0.00 0.00 0.00 0.00 0.00 0.01 0.16 0.33 0.35 0.59 0.48 0.11 0.02 0.00 0.00 0.00 0.00 0.00 0.00 0.00 0.01 0.02 0.03 0.01 0.02 0.02 0.02 0.02 0.01 0.01 0.00 0.00 0.01 0.01 0.01 0.03 0.07 0.02 0.01 0.04 0.12 0.04
0.01 0.02 0.02 0.01 0.01 0.00 0.00 0.00 0.00 0.00 0.03 0.28 0.53 0.32 0.24 0.36 0.12 0.02 0.01 0.01 0.00 0.00 0.00 0.00 0.00 0.02 0.04 0.03 0.01 0.03 0.02 0.02 0.01 0.00 0.01 0.01 0.01 0.00 0.00 0.00 0.00 0.00 0.00 0.01 0.03 0.03 0.03
0.01 0.01 0.02 0.02 0.01 0.01 0.00 0.00 0.00 0.01 0.06 0.46 0.57 0.39 0.12 0.04 0.01 0.02 0.03 0.01 0.00 0.00 0.00 0.00 0.00 0.01 0.01 0.04 0.05 0.03 0.04 0.05 0.05 0.01 0.00 0.00 0.01 0.01 0.00 0.00 0.00 0.00 0.00 0.00 0.00 0.00 0.00
0.02 0.01 0.01 0.02 0.02 0.02 0.01 0.01 0.01 0.00 0.11 0.34 0.56 0.39 0.13 0.05 0.02 0.04 0.02 0.00 0.01 0.01 0.00 0.00 0.00 0.02 0.02 0.01 0.02 0.01 0.01 0.01 0.02 0.01 0.01 0.01 0.01 0.04 0.03 0.01 0.01 0.01 0.00 0.00 0.00 0.00 0.00
0.02 0.02 0.01 0.02 0.03 0.03 0.02 0.03 0.02 0.00 0.06 0.25 0.28 0.38 0.44 0.21 0.05 0.03 0.01 0.02 0.01 0.01 0.01 0.01 0.02 0.02 0.01 0.01 0.01 0.00 0.01 0.00 0.00 0.01 0.01 0.02 0.03 0.12 0.11 0.07 0.08 0.00 0.00 0.00 0.00 0.00 0.00
0.02 0.02 0.03 0.03 0.03 0.04 0.04 0.03 0.03 0.01 0.02 0.26 0.24 0.27 0.42 0.33 0.14 0.03 0.00 0.01 0.03 0.03 0.05 0.06 0.05 0.03 0.02 0.02 0.02 0.03 0.02 0.02 0.00 0.00 0.00 0.00 0.04 0.19 0.23 0.13 0.02 0.00 0.00 0.00 0.00 0.00 0.00
0.05 0.04 0.03 0.03 0.04 0.04 0.03 0.04 0.03 0.01 0.01 0.13 0.32 0.34 0.37 0.33 0.16 0.09 0.07 0.02 0.02 0.02 0.04 0.06 0.06 0.02 0.00 0.02 0.06 0.08 0.06 0.03 0.03 0.01 0.01 0.01 0.04 0.18 0.27 0.21 0.04 0.00 0.00 0.00 0.00 0.00 0.00
0.05 0.07 0.05 0.05 0.04 0.04 0.04 0.03 0.03 0.02 0.02 0.06 0.21 0.37 0.46 0.50 0.22 0.05 0.12 0.11 0.03 0.03 0.04 0.04 0.02 0.02 0.03 0.07 0.11 0.10 0.05 0.02 0.04 0.02 0.02 0.01 0.04 0.12 0.16 0.31 0.07 0.00 0.00 0.00 0.00 0.00 0.00
0.05 0.07 0.07 0.06 0.05 0.05 0.05 0.04 0.02 0.02 0.02 0.06 0.14 0.40 0.53 0.52 0.31 0.13 0.06 0.09 0.07 0.09 0.07 0.04 0.02 0.07 0.09 0.12 0.15 0.12 0.08 0.04 0.01 0.00 0.02 0.06 0.04 0.07 0.09 0.23 0.08 0.00 0.00 0.00 0.00 0.00 0.00
0.06 0.07 0.08 0.07 0.06 0.06 0.06 0.04 0.03 0.02 0.02 0.13 0.21 0.28 0.63 0.61 0.46 0.17 0.10 0.05 0.06 0.07 0.06 0.03 0.04 0.06 0.07 0.16 0.18 0.13 0.14 0.08 0.02 0.03 0.00 0.05 0.03 0.03 0.01 0.02 0.00 0.00 0.00 0.00 0.00 0.00 0.00

GFSGBSN_prec_precacc6_234.txt.gz
Total_Precipitation_Accumulation
0.01 0.00 0.00 0.00 0.00 0.00 0.00 0.00 0.00 0.00 0.00 0.00 0.00 0.00 0.00 0.00 0.00 0.00 0.00 0.00 0.00 0.00 0.00 0.00 0.00 0.00 0.00 0.00 0.00 0.00 0.00 0.00 0.00 0.00 0.00 0.00 0.00 0.00 0.00 0.00 0.00 0.00 0.00 0.00 0.00 0.00 0.00
0.02 0.00 0.00 0.00 0.00 0.00 0.00 0.00 0.00 0.00 0.00 0.00 0.00 0.00 0.00 0.00 0.00 0.00 0.00 0.00 0.00 0.00 0.00 0.00 0.00 0.00 0.00 0.00 0.00 0.00 0.00 0.00 0.00 0.00 0.00 0.00 0.00 0.00 0.00 0.00 0.00 0.00 0.00 0.00 0.00 0.00 0.00
0.03 0.03 0.01 0.00 0.00 0.00 0.00 0.00 0.00 0.00 0.00 0.00 0.00 0.00 0.00 0.00 0.00 0.00 0.00 0.00 0.00 0.00 0.00 0.00 0.00 0.00 0.00 0.00 0.00 0.00 0.00 0.00 0.00 0.00 0.00 0.00 0.00 0.00 0.00 0.00 0.00 0.00 0.00 0.00 0.00 0.00 0.00
0.07 0.05 0.04 0.03 0.01 0.00 0.00 0.00 0.00 0.00 0.00 0.00 0.00 0.00 0.00 0.00 0.00 0.00 0.00 0.00 0.00 0.00 0.00 0.00 0.00 0.00 0.00 0.00 0.00 0.00 0.00 0.00 0.00 0.00 0.00 0.00 0.00 0.00 0.00 0.00 0.00 0.00 0.00 0.00 0.00 0.00 0.00
0.12 0.14 0.09 0.05 0.05 0.03 0.01 0.00 0.00 0.00 0.00 0.00 0.00 0.00 0.00 0.00 0.00 0.00 0.00 0.00 0.00 0.00 0.00 0.00 0.00 0.00 0.00 0.00 0.00 0.00 0.00 0.00 0.00 0.00 0.00 0.00 0.00 0.00 0.00 0.00 0.00 0.00 0.00 0.00 0.00 0.00 0.00
0.00 0.03 0.06 0.08 0.08 0.07 0.04 0.02 0.01 0.00 0.00 0.00 0.00 0.00 0.00 0.00 0.00 0.00 0.00 0.00 0.00 0.00 0.00 0.00 0.00 0.00 0.00 0.00 0.00 0.00 0.00 0.00 0.00 0.00 0.00 0.00 0.00 0.00 0.00 0.00 0.00 0.00 0.00 0.00 0.00 0.00 0.00
0.00 0.00 0.00 0.00 0.02 0.03 0.04 0.05 0.03 0.02 0.01 0.00 0.00 0.00 0.00 0.00 0.00 0.00 0.00 0.00 0.00 0.00 0.00 0.00 0.00 0.00 0.00 0.00 0.00 0.00 0.00 0.00 0.00 0.00 0.00 0.00 0.00 0.00 0.00 0.00 0.00 0.00 0.00 0.00 0.00 0.00 0.00
0.00 0.00 0.00 0.00 0.00 0.00 0.01 0.01 0.03 0.05 0.04 0.02 0.00 0.00 0.00 0.00 0.00 0.00 0.00 0.00 0.00 0.00 0.00 0.00 0.00 0.00 0.00 0.00 0.00 0.00 0.00 0.00 0.00 0.00 0.00 0.00 0.00 0.00 0.00 0.00 0.00 0.00 0.00 0.00 0.00 0.00 0.00
0.00 0.00 0.00 0.00 0.00 0.00 0.00 0.00 0.00 0.02 0.03 0.03 0.02 0.01 0.00 0.00 0.00 0.00 0.00 0.00 0.00 0.00 0.00 0.00 0.00 0.00 0.00 0.00 0.00 0.00 0.00 0.00 0.00 0.00 0.00 0.00 0.00 0.00 0.00 0.00 0.00 0.00 0.00 0.00 0.00 0.00 0.00
0.00 0.00 0.00 0.00 0.00 0.00 0.00 0.00 0.00 0.00 0.00 0.01 0.03 0.02 0.01 0.00 0.01 0.00 0.00 0.00 0.00 0.00 0.00 0.00 0.00 0.00 0.00 0.00 0.00 0.00 0.00 0.00 0.00 0.00 0.00 0.00 0.00 0.00 0.00 0.00 0.00 0.00 0.00 0.00 0.00 0.00 0.00
0.00 0.00 0.00 0.00 0.00 0.00 0.00 0.00 0.00 0.00 0.00 0.01 0.01 0.01 0.00 0.00 0.00 0.00 0.00 0.00 0.00 0.00 0.00 0.00 0.00 0.00 0.00 0.00 0.00 0.00 0.00 0.00 0.00 0.00 0.00 0.00 0.00 0.00 0.00 0.00 0.00 0.00 0.00 0.00 0.00 0.00 0.00
0.00 0.00 0.00 0.00 0.00 0.00 0.00 0.00 0.00 0.00 0.00 0.02 0.05 0.04 0.01 0.00 0.00 0.00 0.00 0.00 0.00 0.00 0.00 0.00 0.00 0.00 0.00 0.00 0.00 0.00 0.00 0.00 0.00 0.00 0.00 0.00 0.00 0.00 0.00 0.00 0.00 0.00 0.00 0.00 0.00 0.00 0.00
0.01 0.01 0.00 0.00 0.00 0.00 0.00 0.00 0.00 0.00 0.00 0.01 0.08 0.10 0.04 0.00 0.00 0.00 0.00 0.02 0.01 0.00 0.00 0.00 0.00 0.00 0.00 0.00 0.00 0.00 0.00 0.00 0.00 0.00 0.00 0.00 0.00 0.00 0.00 0.00 0.00 0.00 0.00 0.00 0.00 0.00 0.00
0.00 0.01 0.01 0.00 0.00 0.00 0.00 0.00 0.00 0.00 0.00 0.01 0.09 0.15 0.05 0.00 0.00 0.01 0.01 0.05 0.02 0.00 0.00 0.00 0.00 0.00 0.00 0.00 0.00 0.00 0.00 0.00 0.00 0.00 0.00 0.00 0.00 0.00 0.00 0.00 0.00 0.00 0.00 0.00 0.01 0.00 0.00
0.00 0.00 0.01 0.00 0.00 0.00 0.00 0.00 0.00 0.00 0.00 0.05 0.16 0.14 0.12 0.02 0.00 0.05 0.03 0.04 0.01 0.00 0.00 0.00 0.00 0.00 0.00 0.00 0.00 0.00 0.00 0.00 0.00 0.00 0.00 0.00 0.00 0.00 0.00 0.00 0.00 0.00 0.00 0.00 0.00 0.00 0.00
0.00 0.00 0.00 0.00 0.00 0.00 0.00 0.00 0.00 0.00 0.00 0.02 0.18 0.16 0.07 0.04 0.06 0.17 0.10 0.02 0.00 0.00 0.00 0.00 0.00 0.00 0.00 0.00 0.00 0.00 0.00 0.00 0.00 0.00 0.00 0.00 0.00 0.00 0.00 0.00 0.00 0.00 0.00 0.00 0.00 0.03 0.02
0.00 0.00 0.00 0.00 0.00 0.00 0.00 0.00 0.00 0.00 0.00 0.02 0.10 0.24 0.06 0.06 0.14 0.32 0.31 0.04 0.00 0.00 0.00 0.00 0.00 0.00 0.00 0.00 0.00 0.01 0.01 0.01 0.01 0.01 0.01 0.02 0.02 0.01 0.01 0.00 0.00 0.00 0.00 0.00 0.01 0.03 0.06
0.00 0.00 0.00 0.00 0.00 0.00 0.00 0.00 0.00 0.00 0.00 0.02 0.14 0.14 0.10 0.12 0.15 0.20 0.10 0.00 0.00 0.00 0.00 0.00 0.00 0.00 0.00 0.00 0.00 0.05 0.01 0.04 0.03 0.02 0.03 0.03 0.02 0.01 0.02 0.00 0.00 0.00 0.00 0.00 0.05 0.07 0.05
0.00 0.01 0.00 0.00 0.00 0.00 0.00 0.00 0.00 0.00 0.00 0.01 0.09 0.16 0.23 0.12 0.09 0.04 0.00 0.00 0.00 0.00 0.00 0.00 0.00 0.00 0.00 0.01 0.03 0.02 0.05 0.06 0.05 0.03 0.02 0.02 0.01 0.00 0.00 0.00 0.00 0.00 0.00 0.00 0.02 0.07 0.10
0.01 0.01 0.01 0.01 0.01 0.01 0.00 0.00 0.00 0.00 0.00 0.01 0.03 0.13 0.43 0.38 0.07 0.00 0.00 0.00 0.00 0.00 0.00 0.00 0.00 0.01 0.02 0.03 0.02 0.04 0.04 0.05 0.05 0.05 0.04 0.03 0.01 0.00 0.00 0.00 0.00 0.00 0.00 0.01 0.03 0.08 0.03
0.01 0.02 0.02 0.02 0.02 0.01 0.01 0.01 0.01 0.00 0.00 0.03 0.04 0.02 0.11 0.29 0.11 0.01 0.00 0.00 0.00 0.00 0.00 0.00 0.00 0.02 0.04 0.04 0.01 0.04 0.05 0.04 0.03 0.02 0.02 0.02 0.01 0.00 0.00 0.00 0.00 0.00 0.00 0.00 0.02 0.02 0.01
0.01 0.01 0.02 0.02 0.02 0.03 0.02 0.01 0.03 0.00 0.01 0.03 0.03 0.01 0.00 0.02 0.01 0.01 0.02 0.00 0.00 0.00 0.00 0.00 0.00 0.01 0.02 0.04 0.06 0.06 0.06 0.06 0.08 0.04 0.01 0.01 0.00 0.00 0.00 0.00 0.00 0.00 0.00 0.00 0.00 0.00 0.00
0.02 0.01 0.01 0.02 0.03 0.03 0.04 0.04 0.03 0.02 0.01 0.01 0.03 0.04 0.04 0.02 0.02 0.05 0.01 0.00 0.00 0.01 0.00 0.00 0.00 0.02 0.02 0.02 0.04 0.08 0.07 0.05 0.05 0.03 0.01 0.00 0.00 0.00 0.00 0.00 0.00 0.01 0.00 0.00 0.00 0.00 0.00
0.03 0.02 0.01 0.01 0.03 0.04 0.06 0.07 0.04 0.01 0.00 0.00 0.02 0.09 0.07 0.03 0.03 0.03 0.01 0.01 0.01 0.01 0.01 0.01 0.02 0.02 0.01 0.02 0.03 0.03 0.02 0.02 0.01 0.02 0.02 0.02 0.01 0.04 0.04 0.03 0.04 0.00 0.00 0.00 0.00 0.00 0.00
0.03 0.03 0.03 0.02 0.02 0.04 0.06 0.09 0.07 0.01 0.02 0.00 0.01 0.07 0.12 0.04 0.05 0.02 0.00 0.00 0.01 0.03 0.04 0.05 0.04 0.02 0.03 0.04 0.05 0.06 0.03 0.01 0.01 0.01 0.00 0.00 0.02 0.08 0.13 0.10 0.02 0.00 0.00 0.00 0.00 0.00 0.00
0.03 0.03 0.03 0.02 0.01 0.04 0.05 0.08 0.08 0.04 0.06 0.01 0.00 0.05 0.14 0.12 0.07 0.08 0.07 0.02 0.01 0.02 0.03 0.04 0.06 0.02 0.01 0.04 0.08 0.09 0.04 0.01 0.00 0.00 0.00 0.00 0.01 0.09 0.19 0.17 0.04 0.00 0.00 0.00 0.00 0.00 0.00
0.03 0.04 0.04 0.03 0.02 0.03 0.05 0.06 0.06 0.05 0.08 0.04 0.00 0.02 0.11 0.18 0.07 0.04 0.12 0.11 0.03 0.04 0.04 0.03 0.02 0.03 0.05 0.08 0.09 0.06 0.02 0.00 0.01 0.01 0.01 0.01 0.02 0.05 0.08 0.25 0.09 0.00 0.00 0.00 0.02 0.01 0.00
0.02 0.03 0.04 0.04 0.03 0.03 0.05 0.06 0.06 0.05 0.07 0.05 0.01 0.01 0.09 0.14 0.09 0.09 0.06 0.08 0.06 0.10 0.17 0.12 0.04 0.06 0.07 0.10 0.12 0.10 0.03 0.01 0.01 0.00 0.02 0.08 0.08 0.07 0.08 0.22 0.09 0.00 0.00 0.00 0.00 0.00 0.00
0.02 0.03 0.04 0.04 0.04 0.05 0.07 0.07 0.06 0.05 0.07 0.08 0.02 0.01 0.05 0.18 0.17 0.08 0.10 0.07 0.06 0.06 0.09 0.11 0.10 0.07 0.03 0.06 0.10 0.06 0.09 0.07 0.03 0.02 0.01 0.10 0.06 0.04 0.05 0.04 0.00 0.00 0.00 0.00 0.00 0.00 0.00